Regional Weather Roundup
Issued by NWS

Home | Current Version | Previous Version | Text Only | Print | Product List | Glossary Off
Versions: 1 2 3 4 5 6 7 8 9 10 11 12 13 14 15 16 17 18 19 20 21 22 23 24 25 26 27 28 29 30 31 32 33 34 35 36 37 38 39 40 41 42 43 44 45 46 47 48 49 50

000
ASUS43 KFSD 250002
RWRSD

WEATHER ROUNDUP FOR SOUTH DAKOTA
NATIONAL WEATHER SERVICE SIOUX FALLS SD
700 PM CDT MON JUL 24 2017

NOTE: "FAIR" INDICATES FEW OR NO CLOUDS BELOW 12,000 FEET WITH NO
SIGNIFICANT WEATHER AND/OR OBSTRUCTIONS TO VISIBILITY.


SDZ001>005-009-010-012>017-250100-
NORTHWEST AND NORTH CENTRAL SOUTH DAKOTA

CITY           SKY/WX    TMP DP  RH WIND       PRES   REMARKS
BUFFALO          N/A     97  49  19 SE5       29.74F
FAITH            N/A     95  56  26 E14       29.79F
MOBRIDGE       SUNNY     83  68  60 SE18G28   29.79R
$$

SDZ012>016-024>037-041>051-057-063-072>074-250100-
SOUTHWEST AND SOUTH CENTRAL SOUTH DAKOTA

CITY           SKY/WX    TMP DP  RH WIND       PRES   REMARKS
RAPID CTY ARPT SUNNY     97  47  18 E7        29.82F
PIERRE         CLOUDY    94  65  38 SE18G30   29.69S HX  96
CUSTER         SUNNY     89  45  21 E12G22    30.02F
ELLSWORTH AFB  SUNNY     96  48  19 E6        29.83S
PHILIP         SUNNY    101  60  25 N14G22    29.71S HX 101
PINE RIDGE     SUNNY    101  36  10 W8        29.80F HX  95
SPEARFISH      LGT RAIN  93  50  22 E14       29.89R
WINNER         MOCLDY    87  63  44 MISG      29.77R
$$

SDZ004>011-016>023-039-040-250100-
NORTHEAST SOUTH DAKOTA

CITY           SKY/WX    TMP DP  RH WIND       PRES   REMARKS
ABERDEEN       PTSUNNY   76  68  76 E15       29.86F
WATERTOWN      CLOUDY    76  64  66 SE13G24   29.91R
BROOKINGS      CLOUDY    79  65  62 SE17      29.93F
SISSETON         N/A     72  67  84 SE10      29.91R
$$

SDZ017-020-022-023-036>040-048>070-250100-
SOUTHEAST SOUTH DAKOTA

CITY           SKY/WX    TMP DP  RH WIND       PRES   REMARKS
SIOUX FALLS    SUNNY     82  64  54 S17G26    29.93R
HURON          CLOUDY    82  66  58 SE24G33   29.81F
CHAMBERLAIN    MOSUNNY   91  70  51 SE16G22   29.76R HX  96
MITCHELL       SUNNY     86  66  51 SE22G30   29.83F
YANKTON        SUNNY     85  68  56 SE20G28   29.88F
$$

ABBREVIATIONS USED IN REMARKS
   TC - TEMPERATURE IN CELSIUS
  WCI - WIND CHILL INDEX
   HX - HEAT INDEX
  VSB - VISIBILITY





USA.gov is the U.S. government's official web portal to all federal, state and local government web resources and services.